Location: *
(35.1500°N, 76.6700°W)
Time: 23:35:40
(UTC+00:00)

CZ-4C R/B - Pass Details

Date: 13 October 2019
Orbit: 652 x 1350 km, 63.4° (Epoch: 15 November)

Event Time Altitude Azimuth Distance (km) Brightness Sun altitude
Rises 23:33:53 0° 330° (NNW) 3,934 6.1 -12.9°
Reaches altitude 10° 23:36:26 10° 332° (NNW) 3,062 5.5 -13.5°
Maximum altitude 23:43:59 75° 58° (ENE) 1,317 3.0 -15.0°
Drops below altitude 10° 23:52:20 10° 143° (SE) 3,379 4.9 -16.7°
Enters shadow 23:54:55 - 145° (SE) 4,239 5.5 -17.2°
